ROMMA est une association bénévole à but non lucratif. Votre soutien est indispensable : ADHERER à ROMMA ou FAIRE un DON

Die - (26, Drôme)

Diois (400 m)   Longitude: 5° 21' 55"E   Latitude: 44° 45' 16"N Station partenaire n°159
 

Détail journalier du     <<     >>

Température Precipitation Humidité Pression Vent Dir Rafale Dir. rafale Ensol.
Heure (°C) (mm) (%) (hPa) (km/h) (km/h) (min)
01:00 11.809410191SSE3SSE0
02:00 11.509510192SSE5SSE0
03:00 11.409310192ESE8SE0
04:00 11.109210192SSE6SSE0
05:00 10.809210191SSE5E0
06:00 10.409410192E6SE0
07:00 9.809410192SE6SSE0
08:00 9.709310201SE6S0
09:00 11.109010211SE6SE0
10:00 13.308410202SSE8SO30
11:00 14.708010203ONO6NNO30
12:00 16.607810194ONO10ONO60
13:00 18.107110184NO10NO60
14:00 19.107210183NO8ONO30
15:00 19.506910185O11ONO60
16:00 18.307310186NO13NNO60
17:00 15.808510173NNE11NNO0
18:00 13.0090101805NNE0
19:00 11.4093101903SO0
20:00 10.2093101902ESE0
21:00 9.9096101902ESE0
22:00 11.10971020000
23:00 11.2096102002ESE0
minuit 11.3096102003ESE0

Graphique du 30-10-2019

 

Serveur OMMA